Regional Weather Roundup
Issued by NWS Nashville, TN

Home | Current Version | Previous Version | Text Only | Print | Product List | Glossary On
Versions: 1 2 3 4 5 6 7 8 9 10 11 12 13 14 15 16 17 18 19 20 21 22 23 24 25 26 27 28 29 30 31 32 33 34 35 36 37 38 39 40 41 42 43 44 45 46 47 48 49 50
000
ASUS44 KOHX 062015
RWROHX
MIDDLE TENNESSEE HOURLY WEATHER ROUNDUP
NATIONAL WEATHER SERVICE NASHVILLE TN
200 PM CST FRI MAR 06 2015

NOTE: "FAIR" INDICATES FEW OR NO CLOUDS BELOW 12,000 FEET WITH
NO SIGNIFICANT WEATHER AND/OR OBSTRUCTIONS TO VISIBILITY.

* THESE REPORTS ARE NOT UNDER NWS QUALITY CONTROL AND MAY NOT
  REPORT WEATHER SUCH AS PRECIPITATION AND FOG.


TNZ005>011-023>034-057-059-062>066-078-080-062100
...NORTHERN MIDDLE TENNESSEE...

CITY           SKY/WX    TMP DP  RH WIND       PRES   REMARKS
CLARKSVILLE    SUNNY     30  16  56 N7        30.50F WCI  23
CROSSVILLE     SUNNY     33  17  51 VRB3      30.40F
GALLATIN         N/A     31  16  54 SE5       30.50F WCI  26
DICKSON        SUNNY     34  12  40 CALM      30.47F
LIVINGSTON     SUNNY     32  21  64 CALM      30.43F
NASHVILLE      SUNNY     34  18  52 CALM      30.51
PORTLAND       SUNNY     27  12  54 CALM      30.48F
SMYRNA         SUNNY     35  17  48 N5        30.52  WCI  31
SPARTA         SUNNY     32  18  55 CALM      30.45F
$$
TNZ056-058-060-061-075>077-079-093>097-062100
...SOUTHERN MIDDLE TENNESSEE...

CITY           SKY/WX    TMP DP  RH WIND       PRES   REMARKS
COLUMBIA         N/A     34  18  51 N3        30.48F
LEWISBURG      SUNNY     34  21  59 VRB3      30.48F
MCMINNVILLE    SUNNY     32  18  55 VRB3      30.45F
MURFREESBORO   SUNNY     33  18  54 CALM      30.49F
SHELBYVILLE    SUNNY     34  21  60 CALM      30.49F
TULLAHOMA      SUNNY     34  18  51 VRB3        N/A
WINCHESTER     SUNNY     34  19  55 VRB3      30.46F
$$


...KEY TO REMARKS...
VSB - VISIBILITY IN MILES
WCI - WIND CHILL INDEX
HX  - HEAT INDEX




USA.gov is the U.S. government's official web portal to all federal, state and local government web resources and services.